Preview of NWS' New Version of Forecast
This preview is not operational and should not be used for support decisions.

Regional Weather Roundup (RWR)

Issued by Philadelphia/Mt Holly (PHI)

                            
000
ASUS41 KPHI 171912
RWRPHI

REGIONAL WEATHER ROUNDUP
NATIONAL WEATHER SERVICE MOUNT HOLLY NJ
200 PM EST THU JAN 17 2019

NOTE:  "FAIR" INDICATES FEW OR NO CLOUDS BELOW 12,000 FEET WITH NO
SIGNIFICANT WEATHER AND/OR OBSTRUCTIONS TO VISIBILITY.

 * = STATION DOES NOT REPORT PRECIPITATION (E.G. RAIN, SNOW, ETC.) 
        OR FOG.

NJZ015>026-172000-
SOUTHERN NEW JERSEY
  
CITY           SKY/WX    TMP DP  RH WIND       PRES   REMARKS
POMONA         FAIR      32  16  51 E6        30.34F WCI  26          
WILDWOOD*      FAIR      34  16  47 E7        30.33F WCI  28          
MILLVILLE      FAIR      34  15  46 E5        30.31F WCI  30          
WRIGHTSTOWN    CLOUDY    33   3  28 S5        30.31F WCI  28          
MOUNT HOLLY    FAIR      33   6  32 E5        30.34F WCI  29          
TRENTON        FAIR      32   7  35 SE7       30.33F WCI  26          

$$
NJZ001>014-172000-
NORTHERN NEW JERSEY
  
CITY           SKY/WX    TMP DP  RH WIND       PRES   REMARKS
SUSSEX         FAIR      30   8  39 E5        30.30F WCI  25          
ANDOVER*         N/A     29   2  31 CALM      30.30F                  
MORRISTOWN     PTSUNNY   30   9  40 CALM      30.34F                  
NEWARK         PTSUNNY   31   8  38 VRB3      30.35F                  
TETERBORO      FAIR      31   4  31 CALM      30.34F                  
CALDWELL       FAIR      30   5  34 CALM      30.34F                  
SOMERVILLE     FAIR      32   5  32 S5        30.31F WCI  27          
ALLAIRE*       FAIR      29  15  56 E9        30.35S WCI  20          
TOMS RIVER*    FAIR      32  18  56 E7        30.35F WCI  26          

$$
PAZ043-044-047-054-055-060>062-066>071-172000-
EASTERN PENNSYLVANIA
  
CITY           SKY/WX    TMP DP  RH WIND       PRES   REMARKS
PHILADELPHIA   CLOUDY    34   7  32 E7        30.33F WCI  28          
NORTH PHILA    FAIR      33   3  28 E3        30.35F                  
BLUE BELL*     FAIR      30   5  34 SE3       30.33F                  
DOYLESTOWN     FAIR      30   2  30 CALM      30.30F                  
QUAKERTOWN*    SUNNY     30   1  29 VRB5      30.30  WCI  25          
PERKASIE*      FAIR      28   1  31 SE6       30.30F WCI  22          
POTTSTOWN      FAIR      28   3  34 E3        30.32F                  
LANCASTER      PTSUNNY   31  17  56 SE9       30.28F WCI  23          
COATESVILLE    FAIR      28  16  59 E7        30.28F WCI  21          
READING        FAIR      31  13  47 CALM      30.29F                  
ALLENTOWN      FAIR      31   5  33 E7        30.30F WCI  24          
MOUNT POCONO   FAIR      24   0  35 SE7       30.19F WCI  16          
HAZLETON       FAIR     N/A N/A N/A SE5       30.23F                  
LEHIGHTON      FAIR      32   1  27 SE3       30.29F                  
WILKES BARRE   FAIR      29   5  36 NW3       30.24F                  

$$
DEZALL-MDZ008-012-015-019-020-172000-
DELAWARE AND EASTERN MARYLAND
  
CITY           SKY/WX    TMP DP  RH WIND       PRES   REMARKS
WILMINGTON     FAIR      33  16  49 E6        30.33F WCI  28          
GEORGETOWN     FAIR      39  26  59 E8        30.32F WCI  33          
EASTON         PTSUNNY   36  21  55 E6        30.34F WCI  31          
ABERDEEN       CLOUDY    32  21  64 SE9       30.32  WCI  24          
PATUXENT       PTSUNNY   38  29  70 SE9       30.30  WCI  31          
OCEAN CITY     FAIR      39  27  62 NE7       30.32F WCI  34          
WALLOPS ISLAND PTSUNNY   41  29  62 NE9       30.31F                  
SALISBURY      FAIR      40  28  62 NE9       30.30F WCI  34          

$$
PAZ001-021-NYZ056-072-MDZ011-DCZ001-172000-
OTHER NEARBY LOCATIONS
  
CITY           SKY/WX    TMP DP  RH WIND       PRES   REMARKS
HARRISBURG     CLOUDY    31  18  58 SE9       30.27F WCI  23          
STATE COLLEGE  CLOUDY    28  16  59 SE7       30.19F WCI  21          
WILLIAMSPORT   FAIR      29  11  47 SE3       30.25F                  
BINGHAMTON     FAIR      20   7  57 S7        30.18F WCI  11          
NEW YORK CITY  FAIR      31   8  38 MISG      30.36F                  
BALTIMORE      CLOUDY    34  23  64 E8        30.28F WCI  27          
WASHINGTON DC  CLOUDY    37  23  56 SE10      30.30F WCI  30          

$$